• In Uzbekistan
  • List of Countries
  • For 7 days
  • Water Temperature
  • Satellite Maps
  • Weather Map
  • Weather Widgets
  • user-avatar
    Login

    Hourly Weather Ulyanovka

    Today, 20 September, Thursday

    Time Temperature Precipitation Wind Pressure Humidity
    00:00 +15°C° 0 mm 4 mps 747 mmHg 80%
    01:00 +15°C° 0 mm 4 mps 747 mmHg 83%
    02:00 +14°C° 0 mm 4 mps 747 mmHg 85%
    03:00 +14°C° 0 mm 4 mps 746 mmHg 88%
    04:00 +14°C° 0 mm 4 mps 747 mmHg 89%
    05:00 +13°C° 0 mm 4 mps 747 mmHg 91%
    06:00 +13°C° 0 mm 3 mps 747 mmHg 93%
    07:00 +15°C° 0 mm 4 mps 747 mmHg 87%
    08:00 +17°C° 0 mm 4 mps 747 mmHg 81%
    09:00 +19°C° 0 mm 4 mps 747 mmHg 75%
    10:00 +21°C° 0 mm 5 mps 747 mmHg 69%
    11:00 +22°C° 0 mm 5 mps 747 mmHg 64%
    12:00 +24°C° 0 mm 6 mps 746 mmHg 58%
    13:00 +24°C° 0 mm 6 mps 746 mmHg 56%
    14:00 +26°C° 0 mm 6 mps 746 mmHg 55%
    15:00 +26°C° 0 mm 6 mps 746 mmHg 53%
    16:00 +25°C° 0 mm 5 mps 746 mmHg 58%
    17:00 +23°C° 0 mm 4 mps 746 mmHg 63%
    18:00 +22°C° 0 mm 3 mps 746 mmHg 68%
    19:00 +21°C° 0 mm 3 mps 746 mmHg 72%
    20:00 +20°C° 0 mm 3 mps 746 mmHg 76%
    21:00 +19°C° 0 mm 3 mps 746 mmHg 80%
    22:00 +18°C° 0 mm 3 mps 746 mmHg 83%
    23:00 +18°C° 0 mm 3 mps 746 mmHg 85%

    Tomorrow, 21 September, Friday

    Time Temperature Precipitation Wind Pressure Humidity
    00:00 +17°C° 0 mm 3 mps 747 mmHg 88%
    01:00 +16°C° 0 mm 3 mps 747 mmHg 90%
    02:00 +16°C° 0 mm 3 mps 747 mmHg 91%
    03:00 +14°C° 0 mm 3 mps 747 mmHg 93%
    04:00 +13°C° 0 mm 3 mps 748 mmHg 93%
    05:00 +13°C° 0 mm 3 mps 748 mmHg 93%
    06:00 +12°C° 0 mm 3 mps 748 mmHg 94%
    07:00 +14°C° 0 mm 3 mps 749 mmHg 87%
    08:00 +16°C° 0 mm 3 mps 749 mmHg 80%
    09:00 +17°C° 0 mm 3 mps 749 mmHg 73%
    10:00 +19°C° 0 mm 3 mps 750 mmHg 66%
    11:00 +20°C° 0 mm 3 mps 750 mmHg 60%
    12:00 +22°C° 0 mm 3 mps 750 mmHg 54%
    13:00 +22°C° 0 mm 3 mps 750 mmHg 52%
    14:00 +24°C° 0 mm 3 mps 750 mmHg 50%
    15:00 +24°C° 0 mm 3 mps 750 mmHg 48%
    16:00 +23°C° 0 mm 2 mps 750 mmHg 53%
    17:00 +21°C° 0 mm 2 mps 750 mmHg 58%
    18:00 +21°C° 0 mm 1 mps 750 mmHg 63%
    19:00 +20°C° 0 mm 1 mps 750 mmHg 66%
    20:00 +19°C° 0 mm 1 mps 750 mmHg 69%
    21:00 +18°C° 0 mm 1 mps 751 mmHg 73%
    22:00 +18°C° 0 mm 1 mps 751 mmHg 74%
    23:00 +16°C° 0 mm 1 mps 751 mmHg 76%

    Day after tomorrow, 22 September, Saturday

    Time Temperature Precipitation Wind Pressure Humidity
    00:00 +16°C° 0 mm 1 mps 751 mmHg 78%
    01:00 +16°C° 0 mm 1 mps 751 mmHg 79%
    02:00 +15°C° 0 mm 1 mps 751 mmHg 81%
    03:00 +15°C° 0 mm 1 mps 751 mmHg 83%
    04:00 +15°C° 0 mm 1 mps 751 mmHg 84%
    05:00 +14°C° 0 mm 1 mps 751 mmHg 86%
    06:00 +14°C° 0 mm 1 mps 751 mmHg 87%
    07:00 +16°C° 0 mm 2 mps 751 mmHg 81%
    08:00 +17°C° 0 mm 2 mps 751 mmHg 74%
    09:00 +19°C° 0 mm 2 mps 752 mmHg 68%
    10:00 +20°C° 0 mm 2 mps 751 mmHg 63%
    11:00 +21°C° 0 mm 3 mps 751 mmHg 58%
    12:00 +24°C° 0 mm 3 mps 751 mmHg 53%
    13:00 +24°C° 0 mm 3 mps 750 mmHg 51%
    14:00 +25°C° 0 mm 3 mps 750 mmHg 49%
    15:00 +25°C° 0 mm 3 mps 750 mmHg 47%
    16:00 +24°C° 0 mm 3 mps 749 mmHg 52%
    17:00 +22°C° 0 mm 3 mps 749 mmHg 56%
    18:00 +20°C° 0 mm 3 mps 749 mmHg 61%
    19:00 +19°C° 0 mm 3 mps 749 mmHg 63%
    20:00 +19°C° 0 mm 3 mps 749 mmHg 64%
    21:00 +18°C° 0 mm 3 mps 749 mmHg 66%
    22:00 +17°C° 0 mm 3 mps 749 mmHg 67%
    23:00 +17°C° 0 mm 3 mps 748 mmHg 67%

    23 September, Sunday

    Time Temperature Precipitation Wind Pressure Humidity
    00:00 +17°C° 0 mm 3 mps 748 mmHg 68%
    01:00 +16°C° 0 mm 3 mps 748 mmHg 69%
    02:00 +16°C° 0 mm 3 mps 747 mmHg 70%
    03:00 +15°C° 0 mm 4 mps 747 mmHg 70%
    04:00 +15°C° 0 mm 4 mps 747 mmHg 71%
    05:00 +14°C° 0 mm 4 mps 746 mmHg 72%
    06:00 +14°C° 0 mm 4 mps 746 mmHg 73%
    07:00 +17°C° 0 mm 4 mps 745 mmHg 68%
    08:00 +19°C° 0 mm 5 mps 745 mmHg 62%
    09:00 +20°C° 0 mm 6 mps 744 mmHg 57%
    10:00 +22°C° 0 mm 6 mps 744 mmHg 51%
    11:00 +23°C° 0 mm 7 mps 743 mmHg 46%
    12:00 +26°C° 0 mm 8 mps 743 mmHg 41%
    13:00 +26°C° 0 mm 8 mps 742 mmHg 39%
    14:00 +27°C° 0 mm 8 mps 741 mmHg 37%
    15:00 +27°C° 0 mm 7 mps 741 mmHg 36%
    16:00 +24°C° 0.2 mm 7 mps 741 mmHg 45%
    17:00 +21°C° 0.2 mm 7 mps 740 mmHg 55%
    18:00 +18°C° 0.2 mm 7 mps 740 mmHg 65%
    19:00 +15°C° 1.4 mm 7 mps 741 mmHg 71%
    20:00 +13°C° 1.4 mm 6 mps 741 mmHg 78%
    21:00 +10°C° 1.4 mm 6 mps 742 mmHg 84%
    22:00 +10°C° 1.1 mm 6 mps 742 mmHg 83%
    23:00 +9°C° 1.1 mm 5 mps 742 mmHg 82%

    24 September, Monday

    Time Temperature Precipitation Wind Pressure Humidity
    00:00 +9°C° 1.1 mm 5 mps 743 mmHg 81%
    01:00 +9°C° 0 mm 5 mps 743 mmHg 83%
    02:00 +9°C° 0 mm 5 mps 743 mmHg 85%
    03:00 +8°C° 0 mm 4 mps 743 mmHg 87%
    04:00 +8°C° 0 mm 4 mps 744 mmHg 89%
    05:00 +8°C° 0 mm 4 mps 744 mmHg 91%
    06:00 +7°C° 0 mm 4 mps 744 mmHg 93%
    07:00 +8°C° 0 mm 4 mps 744 mmHg 87%
    08:00 +11°C° 0 mm 4 mps 745 mmHg 80%
    09:00 +12°C° 0 mm 5 mps 745 mmHg 74%
    10:00 +13°C° 0 mm 5 mps 745 mmHg 67%
    11:00 +14°C° 0 mm 5 mps 745 mmHg 60%
    12:00 +15°C° 0 mm 5 mps 745 mmHg 52%
    13:00 +16°C° 0 mm 5 mps 745 mmHg 50%
    14:00 +16°C° 0 mm 5 mps 745 mmHg 49%
    15:00 +17°C° 0 mm 4 mps 745 mmHg 47%
    16:00 +15°C° 0 mm 4 mps 745 mmHg 50%
    17:00 +14°C° 0 mm 3 mps 745 mmHg 53%
    18:00 +14°C° 0 mm 2 mps 744 mmHg 57%
    19:00 +14°C° 0 mm 2 mps 744 mmHg 57%
    20:00 +12°C° 0 mm 3 mps 744 mmHg 58%
    21:00 +11°C° 0 mm 3 mps 744 mmHg 59%
    22:00 +12°C° 0 mm 3 mps 743 mmHg 58%
    23:00 +12°C° 0 mm 4 mps 743 mmHg 56%

    25 September, Tuesday

    Time Temperature Precipitation Wind Pressure Humidity
    00:00 +12°C° 0 mm 5 mps 743 mmHg 55%
    01:00 +12°C° 0 mm 5 mps 742 mmHg 54%
    02:00 +11°C° 0 mm 6 mps 742 mmHg 53%
    03:00 +11°C° 0 mm 6 mps 741 mmHg 52%
    04:00 +11°C° 0 mm 7 mps 740 mmHg 50%
    05:00 +11°C° 0 mm 7 mps 740 mmHg 48%
    06:00 +12°C° 0 mm 8 mps 739 mmHg 46%
    07:00 +12°C° 0.1 mm 8 mps 739 mmHg 47%
    08:00 +13°C° 0.1 mm 8 mps 738 mmHg 49%
    09:00 +15°C° 0.1 mm 9 mps 738 mmHg 50%
    10:00 +15°C° 1.2 mm 8 mps 738 mmHg 58%
    11:00 +13°C° 1.2 mm 8 mps 737 mmHg 67%
    12:00 +14°C° 1.2 mm 7 mps 737 mmHg 75%
    13:00 +15°C° 0.6 mm 7 mps 737 mmHg 73%
    14:00 +15°C° 0.6 mm 7 mps 737 mmHg 71%
    15:00 +16°C° 0.6 mm 7 mps 737 mmHg 69%
    16:00 +15°C° 0 mm 6 mps 737 mmHg 68%
    17:00 +15°C° 0 mm 6 mps 738 mmHg 66%
    18:00 +14°C° 0 mm 5 mps 738 mmHg 65%
    19:00 +13°C° 0 mm 5 mps 738 mmHg 64%
    20:00 +13°C° 0 mm 5 mps 739 mmHg 64%
    21:00 +12°C° 0 mm 5 mps 739 mmHg 63%
    22:00 +12°C° 0 mm 5 mps 740 mmHg 65%
    23:00 +10°C° 0 mm 5 mps 741 mmHg 66%
    Show more